[Date Prev][Date Next][Thread Prev][Thread Next] - [Date Index][Thread Index][Author Index]
2 Line ISS Keps 12-30
- Subject: [sarex] 2 Line ISS Keps 12-30
- From: "Dave Larsen PhD" <doc@xxxxxxxxxxx>
- Date: Wed, 29 Dec 2004 17:53:44 -0800
ISS
1 25544U 98067A 04364.92649306 .00026977 00000-0 20551-3 0 4752
2 25544 51.6404 46.4297 0003593 144.8260 224.2319 15.72037477349078
----
Via the sarex mailing list at AMSAT.ORG courtesy of AMSAT-NA.
To unsubscribe, send "unsubscribe sarex" to Majordomo@amsat.org
AMSAT Home